Regional Weather Roundup
Issued by NWS Little Rock, AR

Home | Current Version | Previous Version | Graphics & Text | Print | Product List | Glossary On
Versions: 1 2 3 4 5 6 7 8 9 10 11 12 13 14 15 16 17 18 19 20 21 22 23 24 25 26 27 28 29 30 31 32 33 34 35 36 37 38 39 40 41 42 43 44 45 46 47 48 49 50
691
ASUS44 KLZK 231805
RWRLZK

WEATHER ROUNDUP FOR ARKANSAS
NATIONAL WEATHER SERVICE LITTLE ROCK AR
100 PM CDT MON MAY 23 2016

NOTE: "FAIR" INDICATES FEW OR NO CLOUDS BELOW 12,000 FEET WITH NO
SIGNIFICANT WEATHER AND/OR OBSTRUCTIONS TO VISIBILITY.

ARZ001-003-010-029-231900-
NORTHWEST ARKANSAS

CITY           SKY/WX    TMP DP  RH WIND       PRES   REMARKS
FAYETTEVILLE   CLOUDY    70  59  68 S12       29.94S
6HR MIN TEMP:  58; 6HR MAX TEMP:  72;

FORT SMITH     CLOUDY    75  59  57 E6        29.91F
6HR MIN TEMP:  62; 6HR MAX TEMP:  75; 6HR PCP: TRACE;

HARRISON       MOSUNNY   75  55  49 SE16      29.96F
6HR MIN TEMP:  55; 6HR MAX TEMP:  76;

BENTONVILLE    CLOUDY    75  55  50 S10       29.94F
6HR MIN TEMP:  63; 6HR MAX TEMP:  75;

ROGERS           N/A     76  59  55 S10G20    29.94F
SILOAM SPGS    CLOUDY    72  55  56 S8G20     29.93F
6HR MIN TEMP:  61; 6HR MAX TEMP:  73;

HIGHFILL       CLOUDY    75  60  59 S14       29.93F
6HR MIN TEMP:  59; 6HR MAX TEMP:  75;

SPRINGDALE     MOSUNNY   75  59  57 S14       29.95F
$$

ARZ004-005-016-231900-
NORTH CENTRAL ARKANSAS

CITY           SKY/WX    TMP DP  RH WIND       PRES   REMARKS
BATESVILLE     CLOUDY    81  55  41 S9        30.01F
6HR MIN TEMP:  52; 6HR MAX TEMP:  81;

FLIPPIN        CLOUDY   N/A N/A N/A S8        29.94F
MTN HOME       MOSUNNY   77  55  46 S12G21    29.97F
6HR MIN TEMP:  56; 6HR MAX TEMP:  78;

$$

ARZ040-041-231900-
WEST CENTRAL ARKANSAS

CITY           SKY/WX    TMP DP  RH WIND       PRES   REMARKS
MENA           CLOUDY    73  64  73 CALM      29.95F
MOUNT IDA      CLOUDY    72  59  63 VRB6      29.93F
6HR MIN TEMP:  56; 6HR MAX TEMP:  74; 6HR PCP: TRACE;

$$

ARZ009-017-025-026-028-231900-
NORTHEAST ARKANSAS

CITY           SKY/WX    TMP DP  RH WIND       PRES   REMARKS
CORNING        LGT RAIN  82  54  36 S9        30.02F
JONESBORO      CLOUDY    82  47  29 S12       30.01F
6HR MIN TEMP:  58; 6HR MAX TEMP:  82;

NEWPORT        PTSUNNY   84  49  29 SW13      30.02F
6HR MIN TEMP:  58; 6HR MAX TEMP:  84;

WALNUT RIDGE   CLOUDY    81  48  32 S14       30.01S
6HR MIN TEMP:  57; 6HR MAX TEMP:  81;

BLYTHEVILLE    SUNNY     83  48  29 S9        30.01F
6HR MIN TEMP:  62; 6HR MAX TEMP:  83;

NW BLYTHEVILLE PTSUNNY   84  48  28 S8        30.02F
$$

ARZ022-023-033-042-044-231900-
CENTRAL ARKANSAS

CITY           SKY/WX    TMP DP  RH WIND       PRES   REMARKS
LITTLE ROCK    PTSUNNY   81  56  42 S13       30.00F
6HR MIN TEMP:  61; 6HR MAX TEMP:  82;

N LITTLE ROCK    N/A     81  58  45 S8G17     29.98F
6HR MIN TEMP:  61; 6HR MAX TEMP:  81;

JACKSONVILLE   MOSUNNY   82  56  41 S8        29.99F
6HR MIN TEMP:  56; 6HR MAX TEMP:  82;

SEARCY         MOSUNNY   81  56  42 S7        30.02F
6HR MIN TEMP:  54; 6HR MAX TEMP:  81;

HOT SPRINGS    PTSUNNY   77  59  53 S10       29.98F
6HR MIN TEMP:  59; 6HR MAX TEMP:  78;

RUSSELLVILLE   CLOUDY    78  56  46 S10       29.94F
6HR MIN TEMP:  57; 6HR MAX TEMP:  79;

CLINTON        FAIR      77  59  53 SE6       29.99F
$$

ARZ036-231900-
EAST ARKANSAS

CITY           SKY/WX    TMP DP  RH WIND       PRES   REMARKS
WEST MEMPHIS   CLOUDY    81  51  35 MISG      30.01F
6HR MIN TEMP:  58; 6HR MAX TEMP:  81;

$$

ARZ050-053-066-070-073-231900-
SOUTHWEST ARKANSAS

CITY           SKY/WX    TMP DP  RH WIND       PRES   REMARKS
ARKADELPHIA    FAIR      79  68  69 S9        29.98F
6HR MIN TEMP:  59; 6HR MAX TEMP:  81;

CAMDEN         CLOUDY    82  55  39 S7        30.01F
TEXARKANA      CLOUDY    75  63  66 SE8       29.93F
6HR MIN TEMP:  64; 6HR MAX TEMP:  75; 6HR PCP: TRACE;

EL DORADO      PTSUNNY   79  59  50 SW9       30.02F
6HR MIN TEMP:  59; 6HR MAX TEMP:  81;

DE QUEEN       CLOUDY    72  66  81 SE5       29.92R
6HR MIN TEMP:  63; 6HR MAX TEMP:  72; 6HR PCP:  0.16;

$$

ARZ056-057-069-231900-
SOUTHEAST ARKANSAS

CITY           SKY/WX    TMP DP  RH WIND       PRES   REMARKS
PINE BLUFF     PTSUNNY   79  56  45 W9        30.02F
6HR MIN TEMP:  59; 6HR MAX TEMP:  80;

STUTTGART      CLOUDY    82  50  32 S7        30.03F
6HR MIN TEMP:  63; 6HR MAX TEMP:  84;

MONTICELLO     MOSUNNY   83  57  41 W8        30.03F
6HR MIN TEMP:  62; 6HR MAX TEMP:  84;


$$






USA.gov is the U.S. government's official web portal to all federal, state and local government web resources and services.